Location: College Park
(38.9810°N, 76.9370°W)
Time: 03:19:17
(UTC-05:00)

Envisat - Pass Details

Date: 16 February 2018
Orbit: 764 x 766 km, 98.2° (Epoch: 23 February)

Event Time Altitude Azimuth Distance (km) Brightness Sun altitude
Exits shadow 20:18:00 - 192° (SSW) 2,612 5.8 -30.0°
Reaches altitude 10° 20:18:52 10° 196° (SSW) 2,294 5.5 -30.2°
Maximum altitude 20:23:31 37° 263° (W) 1,185 4.3 -31.1°
Drops below altitude 10° 20:28:12 10° 330° (NNW) 2,308 5.9 -32.0°
Sets 20:30:41 0° 338° (NNW) 3,238 6.6 -32.5°
